#timestamp,LO_Frequency,Hit 
1502053215.9,286047031.9,N
1502053235.7,286047031.7,N
1502053255.6,286047031.8,N
1502053275.4,286047033.1,N
1502053295.2,286047036.3,N
1502053315.0,286047034.3,N
1502053315.9,286047034.3,N
1502053335.8,286047034.4,N
1502053355.6,286047034.7,N
1502053375.4,286047033.9,N
1502053395.3,286047031.7,N
1502053415.1,286047032.7,N
1502053435.8,286047031.7,N
1502053455.7,286047030.5,N
1502053475.5,286047031.9,N
1502053495.3,286047030.1,N
1502053515.2,286047029.0,N
1502053535.9,286047028.6,N
1502053555.7,286047030.7,N
1502053575.5,286047028.5,N
1502053595.4,286047028.9,N
1502053615.2,286047029.0,N
1502053635.0,286047031.4,N
1502053635.9,286047031.4,N
1502053655.8,286047033.1,N
1502053675.6,286047032.2,N
1502053695.4,286047030.1,N
1502053715.3,286047033.0,N
1502053735.1,286047031.8,N
1502053736.0,286047031.8,N
1502053755.8,286047033.0,N
1502053775.7,286047034.4,N
1502053795.5,286047032.3,N
1502053815.3,286047030.2,N
1502053835.2,286047032.4,N
1502053855.9,286047034.4,N
1502053875.7,286047032.9,N
1502053895.5,286047034.4,N
1502053915.4,286047031.8,N
1502053935.2,286047034.4,N
1502053955.0,286047035.9,N
1502053955.9,286047035.9,N
1502053975.8,286047031.8,N
1502053995.6,286047033.0,N
1502054015.4,286047031.8,N
1502054035.3,286047032.7,N
1502054055.1,286047032.2,N
1502054056.0,286047032.2,N
1502054075.8,286047033.1,N
1502054095.7,286047032.4,N
1502054115.5,286047031.8,N
1502054135.3,286047033.9,N
1502054155.2,286047033.5,N
1502054175.9,286047033.3,N
1502054195.7,286047032.1,N
1502054215.5,286047034.6,N
1502054235.4,286047032.9,N
1502054255.2,286047030.2,N
1502054275.0,286047032.8,N
1502054275.9,286047032.8,N
1502054295.8,286047030.7,N
1502054315.6,286047031.3,N
1502054335.4,286047030.1,N
1502054355.3,286047030.2,N
1502054375.1,286047029.0,N
1502054395.8,286047033.1,N
1502054415.7,286047028.6,N
1502054435.5,286047029.0,N
1502054455.3,286047033.0,N
1502054475.2,286047032.9,N
1502054495.9,286047032.4,N
1502054515.7,286047032.7,N
1502054535.5,286047030.4,N
1502054555.4,286047030.2,N
1502054575.2,286047028.5,N
1502054595.0,286047030.6,N
1502054595.9,286047030.6,N
1502054615.8,286047030.4,N
1502054635.6,286047032.0,N
1502054655.4,286047034.6,N
1502054675.3,286047032.0,N
1502054695.1,286047036.4,N
1502054715.8,286047033.7,N
1502054735.7,286047034.8,N
1502054755.5,286047034.6,N
1502054775.3,286047035.9,N
1502054795.2,286047036.6,N
1502054815.9,286047035.4,N
1502054835.7,286047037.9,N
1502054855.6,286047037.6,N
1502054875.4,286047036.0,N
1502054895.2,286047033.8,N
1502054915.0,286047032.1,N
1502054916.0,286047032.1,N
1502054935.8,286047032.2,N
1502054955.6,286047034.7,N
1502054975.4,286047033.4,N
1502054995.3,286047033.5,N
1502055015.1,286047035.0,N
1502055035.8,286047036.2,N
1502055055.7,286047034.8,N
1502055075.5,286047033.9,N
1502055095.3,286047036.4,N
1502055115.2,286047035.8,N
1502055135.9,286047036.2,N
1502055155.7,286047033.5,N
1502055175.6,286047033.9,N
1502055195.4,286047034.0,N
1502055215.2,286047033.8,N
1502055235.0,286047036.4,N
1502055235.9,286047036.4,N
1502055255.8,286047037.6,N
1502055275.6,286047035.0,N
1502055295.4,286047037.6,N
1502055315.3,286047035.7,N
1502055335.1,286047035.4,N
1502055355.8,286047037.7,N
1502055375.7,286047036.0,N
1502055395.5,286047035.3,N
1502055415.3,286047035.6,N
1502055435.2,286047035.6,N
1502055455.9,286047033.7,N
1502055475.7,286047034.9,N
1502055495.5,286047036.0,N
1502055515.4,286047036.4,N
1502055535.2,286047034.1,N
1502055555.0,286047033.3,N
1502055555.9,286047033.3,N
1502055575.8,286047033.7,N
1502055595.6,286047035.3,N
1502055615.4,286047038.0,N
1502055635.3,286047037.8,N
1502055655.1,286047036.6,N
1502055656.0,286047036.6,N
1502055675.8,286047037.0,N
1502055695.7,286047036.7,N
1502055715.5,286047039.2,N
1502055735.3,286047036.8,N
1502055755.2,286047039.4,N
1502055775.9,286047035.3,N
1502055795.7,286047037.1,N
1502055815.5,286047037.1,N
1502055835.4,286047037.3,N
1502055855.2,286047038.9,N
1502055875.0,286047036.7,N
1502055875.9,286047036.7,N
1502055895.8,286047036.6,N
1502055915.6,286047040.8,N
1502055935.4,286047042.5,N
1502055955.3,286047040.4,N
1502055975.1,286047039.3,N
1502055976.0,286047039.3,N
1502055995.8,286047039.6,N
1502056015.7,286047038.1,N
1502056035.5,286047038.4,N
1502056055.3,286047036.9,N
1502056075.2,286047039.2,N
1502056095.9,286047039.1,N
1502056115.7,286047039.2,N
1502056135.5,286047041.0,N
1502056155.4,286047038.7,N
1502056175.2,286047036.9,N
1502056195.0,286047034.9,N
1502056195.9,286047034.9,N
1502056215.8,286047035.2,N
1502056235.6,286047037.8,N
1502056255.4,286047036.6,N
1502056275.3,286047036.7,N
1502056295.1,286047036.6,N
1502056296.0,286047036.6,N
1502056315.8,286047037.3,N
1502056335.7,286047038.1,N
1502056355.5,286047037.7,N
1502056375.3,286047037.6,N
1502056395.2,286047037.1,N
1502056415.9,286047036.9,N
1502056435.7,286047037.2,N
1502056455.5,286047036.7,N
1502056475.4,286047037.2,N
1502056495.2,286047037.7,N
1502056515.0,286047036.9,N
1502056515.9,286047036.9,N
1502056535.8,286047037.7,N
1502056555.6,286047036.8,N
1502056575.4,286047037.9,N
1502056595.3,286047038.8,N
1502056615.1,286047038.3,N
1502056616.0,286047038.3,N
1502056635.8,286047039.6,N
1502056655.7,286047039.6,N
1502056675.5,286047038.8,N
1502056695.3,286047039.7,N
1502056715.2,286047038.4,N
1502056735.9,286047038.9,N
1502056755.7,286047041.0,N
1502056775.5,286047037.0,N
1502056795.4,286047040.8,N
